Regional Weather Roundup
Issued by NWS Wakefield, VA

Home | Current Version | Previous Version | Graphics & Text | Print | Product List | Glossary On
Versions: 1 2 3 4 5 6 7 8 9 10 11 12 13 14 15 16 17 18 19 20 21 22 23 24 25 26 27 28 29 30 31 32 33 34 35 36 37 38 39 40 41 42 43 44 45 46 47 48 49 50
000
ASUS41 KAKQ 011314
RWRAKQ

REGIONAL WEATHER ROUNDUP
NATIONAL WEATHER SERVICE WAKEFIELD VA
900 AM EDT TUE SEP 01 2015

Note: "fair" indicates few or no clouds below 12,000 feet with no
significant weather and/or obstructions to visibility. * = Denotes
station may not report precipitation (e.g., rain,snow,etc.),
thunder or fog.

VAZ042-051-052>054-056-011400-
NORTHERN VIRGINIA

CITY           SKY/WX    TMP DP  RH WIND       PRES   REMARKS
WASH NATIONAL  MOSUNNY   79  68  69 N6        30.07S
DULLES         SUNNY     77  67  71 NW6       30.09R
FORT BELVOIR   SUNNY     75  72  91 W2        30.07S
QUANTICO       MOSUNNY   74  68  81 W3        30.08S
FREDERICKSBRG* SUNNY     75  74  96 CALM      30.07S
STAFFORD*      SUNNY     73  69  87 CALM      30.12S
WARRENTON      SUNNY     73  73 100 CALM      30.08S
CULPEPER*      SUNNY     71  67  87 CALM      30.09S
MANASSAS*      SUNNY     73  72  94 CALM      30.08S
LEESBURG*      SUNNY     79  70  73 NW8       30.10S
WINCHESTER     SUNNY     77  64  65 CALM      30.12R
FRONT ROYAL*   FAIR      73  64  73 SW5       30.12R
LURAY*         FAIR      70  64  83 CALM      30.14S
$$

VAZ048-049-060>072-079>083-011400-
CENTRAL AND SOUTH CENTRAL VIRGINIA

CITY           SKY/WX    TMP DP  RH WIND       PRES   REMARKS
RICHMOND       PTSUNNY   76  69  79 VRB3      30.08S
CHESTERFIELD*  CLOUDY    72  61  68 CALM      30.10S
PETERSBURG*    CLOUDY    74  74 100 W3        30.09S
HANOVER        CLOUDY    72  69  90 SW3       30.10S
TAPPAHANNOCK*  CLOUDY    71  69  92 CALM      30.09R FOG
QUINTON*       CLOUDY    72  70  92 W3        30.08S
CHARLOTTSVILLE SUNNY     76  67  73 CALM      30.10R
GORDONSVILLE*  FAIR      72  69  92 CALM      30.09R
ORANGE*        SUNNY     73  70  88 CALM      30.10S
LOUISA*        SUNNY     72  70  94 CALM      30.09R
BUMPASS*       FAIR      72  69  91 CALM      30.09R
FARMVILLE*       N/A     71  71 100 CALM      30.09R
CREWE*         CLOUDY   N/A N/A N/A CALM      30.09S
FORT PICKETT*  CLOUDY    70  69  98 CALM      30.10R
CHASE CITY*    FAIR      72  72 100 CALM      30.10S
CLARKSVILLE*   FAIR      70  70 100 W5        30.10S
SOUTH HILL*    CLOUDY    70  69  99 CALM      30.15S
LAWRENCEVILLE* CLOUDY    72  72 100 SW3       30.10R
EMPORIA*       CLOUDY    72  70  94 CALM      30.11R
$$

VAZ088>098-011400-
SOUTHEAST VIRGINIA

CITY           SKY/WX    TMP DP  RH WIND       PRES   REMARKS
NORFOLK        CLOUDY    77  69  76 N5        30.06R
VIRGINIA BEACH PTSUNNY   82  71  69 NW7       30.06R
NORFOLK NAVAL  PTSUNNY   77  68  73 N3        30.08R
WEST POINT*    CLOUDY    75  69  81 CALM      30.09S
SALUDA*        CLOUDY    72  70  92 NW5       30.07S
NEWPORT NEWS   CLOUDY    75  69  81 NW3       30.08R
LANGLEY AFB    CLOUDY    76  70  81 N5        30.06R
FORT EUSTIS    CLOUDY    75  75 100 VRB6      30.06R
WILLIAMSBURG*  MOSUNNY   75  72  88 N3        30.09R
HR EXEC AP*      N/A     72  70  94 W3        30.09S
FRANKLIN*      CLOUDY    70  69  96 CALM      30.09R
WAKEFIELD      CLOUDY    74  69  85 CALM      30.09R HAZE
$$

VAZ020-022-025-037-045-011400-
WEST CENTRAL AND SOUTHWEST VIRGINIA

CITY           SKY/WX    TMP DP  RH WIND       PRES   REMARKS
STAUNTON*      SUNNY     71  64  81 CALM      30.18R
WAYNESBORO*    FAIR      72  64  76 CALM      30.17R
HOT SPRINGS VA SUNNY     69  63  80 NW7       30.27S
LYNCHBURG      SUNNY     73  68  84 CALM      30.14R
DANVILLE       SUNNY     73  68  84 W3        30.11S
SOUTH BOSTON*  FAIR      70  69  96 CALM      30.10S
MARTINSVILLE   SUNNY     71  68  90 CALM      30.16S
ROANOKE        SUNNY     72  64  76 W3        30.18R
BLACKSBURG     MOSUNNY   68  65  92 CALM      30.24S
DUBLIN*        CLOUDY    68  65  90 CALM      30.24R
MARION*        SUNNY     69  64  83 CALM      30.26F
HILLSVILLE*    SUNNY     64  62  93 CALM      30.23F
RICHLANDS*     FAIR      66  36  33 CALM      30.25S
WISE*          MOSUNNY   72  66  83 CALM      30.27R
ABINGDON*      SUNNY     70  63  78 E3        30.23R
$$

MDZ021>025-VAZ099-100-011400-
SOUTHERN MARYLAND AND THE DELMARVA PENINSULA

CITY           SKY/WX    TMP DP  RH WIND       PRES   REMARKS
PATUXENT RIVER PTSUNNY   74  70  87 W6        30.06S
BAY BRIDGE APT   N/A     75  70  83 W3        30.06S
LEONARDTOWN    NOT AVBL
DOVER          SUNNY     77  74  90 W6        30.04S
GEORGETOWN     SUNNY     76  71  85 W5        30.06R
EASTON         SUNNY     79  77  94 CALM      30.09S
CAMBRIDGE      SUNNY     77  72  83 NW3       30.05S
SALISBURY      SUNNY     76  71  85 SW5       30.05S
OCEAN CITY     SUNNY     77  71  82 NW3       30.05S
WALLOPS ISLAND MOSUNNY   77  72  84 W6        30.07R
ACCOMACK*      SUNNY     75  64  69 CALM      30.07S
$$

NCZ012>017-030>032-011400-
NORTH CENTRAL AND EASTERN NORTH CAROLINA

CITY           SKY/WX    TMP DP  RH WIND       PRES   REMARKS
ROANOKE RAPIDS CLOUDY    72  70  94 N3        30.10R
RALEIGH        MOSUNNY   73  70  90 CALM      30.11S
ELIZABETH CITY CLOUDY    77  73  87 N8        30.07R
AHOSKIE*       CLOUDY    71  69  95 CALM      30.09S
EDENTON*       CLOUDY    73  72  95 NW7       30.07S
CURRITUCK*     CLOUDY   N/A N/A N/A CALM      30.07R
KILL DEVIL HLS MOSUNNY   78  76  92 N5        30.05R
MANTEO         CLOUDY    77  74  91 N5        30.06R
CAPE HATTERAS  CLOUDY    79  75  87 VRB3      30.05R
TARBORO*       CLOUDY    72  71  96 W5        30.11R
GOLDSBORO      CLOUDY    75  72  91 NW6       30.09R
WASHINGTON     CLOUDY    73  72  96 N3        30.08S
GREENVILLE     CLOUDY    73  72  94 N3        30.11R
NEW BERN       CLOUDY    76  73  91 NW6       30.09R
WILMINGTON     PTSUNNY   75  72  90 NW9       30.10R
$$

VAZ048-011400-
ELSEWHERE

CITY           SKY/WX    TMP DP  RH WIND       PRES   REMARKS
HARRISBURG PA  MOSUNNY   75  67  76 NW7       30.08R
BALTIMORE      MOSUNNY   78  68  71 NW3       30.06R
ANNAPOLIS      SUNNY     77  70  79 N5        30.06R
ANDREWS AFB    SUNNY     78  69  74 NW6       30.06S
PHILADELPHIA   SUNNY     81  68  64 VRB7      30.05S
HENDERSON NC   SUNNY     71  69  94 SW3       30.10F
GREENSBORO     MOSUNNY   76  70  82 NW6       30.13R
ROCKY MOUNT    CLOUDY    73  70  90 NW3       30.10S
$$

VAZ100-011400-
MARINE

STATION/POSITION TIME  TEMP    WIND        PRES    WAVE   SWELL
                       AIR SEA DIR/SP/G            HT/PER HT/PER
                 (UTC) (F)     (DEG/KT/KT) (MB)    (FT/S) (FT/S)
BRANDYWINE LGT   1200   74 76  290/  5/  6 1017.7R
CAPE MAY NJ      1200   76 79  300/  5/  6 1017.1R
LEWES DE         1200   73 75  290/  3/  4 1017.3R
15NM E FENWICK I 1250   75 78  260/  8/  8 1017.6R   2/ 8   2/ 8
OCEAN-CITY-INLET 1200   72 77  310/  3/  3 1016.8R
THOMAS POINT MD  1300          290/  4       N/A
GOOSES REEF MD   1300   75 79  310/  4/  4 1018.9S
COVE POINT MD    1200   72     310/  4/  6 1018.5R
SOLOMONS ISLAND  1200      80                N/A
BISHOPS HEAD MD  1200   75 77  290/  5/  6 1016.9R
PINEY POINT MD   1229          280/  5/  6   N/A
POTOMAC MD       1300   72 79  280/  6/  6 1017.2R   1
CAMBRIDGE MD     1200   74 80  230/  3/  5 1016.9R
LEWISETTA VA     1200   70 79  270/  4/  5 1017.9R
RAPPAHANNOCK LGT 1200          320/  5/  6 1018.5R
STINGRAY PT      1300   75 80  300/  6/  6 1018.7R   0
YORK RVR RNG VA  1200   74     310/  6/  8 1017.5R
YORKTOWN VA      1200   73 80  270/  5/  5 1017.7R
JAMESTOWN VA     1300   73 80  330/  4/  6   N/A
DOMINION TERM VA 1200   74     310/  8/ 10 1017.7R
KIPTOPEKE VA     1200      78   10/  5/  7   N/A
CHES BAY BRIDGE  1200   75 79  300/  8/  9 1017.2R
CAPE HENRY VA    1200   76     330/  8/ 10   N/A
CHESAPEAKE LGHT  1200   76     340/  6/  6 1018.4R
WILLOUBY STN VA  1200   75     340/  6/  6 1018.7R
CAPE HENRY BUOY  1228      78                N/A     2/ 8
1ST LANDING BUOY 1300      79              1017.6R   1/ 3
CAPE CHARLES BUO 1226      78                N/A     2/ 8   2/ 8
OFFSHORE WE BUOY 1211      78                N/A     2/ 8   2/ 8
64NM E OF VA BCH 1250   78 78   50/  6/  8 1017.0R   2/ 8   2/ 8
DUCK PIER NC     1200   77 78   50/  4/  5 1016.6R
44100 DUCK FRF   1224      78                N/A     2/ 9
44056 DUCK FRF   1211      78                N/A     2/11
OREGON INLET NC  1200   78 79  350/  5/  7 1017.1R
HATTERAS NC      1200   78 79  340/  8/ 10 1016.9R
DIAMOND SHLS NC  1250   79 84  360/ 12/ 14 1017.1R   3/ 6   2/ 6
CAPE LOOKOUT NC  1300   76     310/  7/  8 1018.2R
$$



USA.gov is the U.S. government's official web portal to all federal, state and local government web resources and services.